This is the latest recevied weather packets stored in our database for station/object N1PRS-9. If no packets are shown the sender has not sent any weather packets the latest 10 day(s).
| Time | Temp. | Humidity | Pressure | Rain* | Wind** | Luminosity | Snow |
|---|---|---|---|---|---|---|---|
| 1777914946 | 20.56° C | 36% | 1010.2 hPa | 0 mm | - | 937 W/m² | - |
| 1777914051 | 20° C | 36% | 1010.1 hPa | 0 mm | - | 937 W/m² | - |
| 1777912829 | 19.44° C | 37% | 1010.2 hPa | 0 mm | - | 935 W/m² | - |
| 1777911629 | 18.89° C | 37% | 1010.4 hPa | 0 mm | - | 846 W/m² | - |
| 1777911346 | 18.89° C | 35% | 1010.6 hPa | 0 mm | - | 925 W/m² | - |
| 1777911033 | 18.89° C | 36% | 1010.5 hPa | 0 mm | - | 921 W/m² | - |
| 1777909566 | 18.33° C | 39% | 1010.9 hPa | 0 mm | - | 738 W/m² | - |
| 1777908031 | 18.33° C | 38% | 1011.2 hPa | 0 mm | - | 401 W/m² | - |
| 1777905944 | 17.22° C | 40% | 1011.5 hPa | 0 mm | - | 141 W/m² | - |
| 1777905331 | 16.67° C | 40% | 1011.5 hPa | 0 mm | - | 72 W/m² | - |
| 1777901438 | 13.89° C | 51% | 1012.2 hPa | 0 mm | - | 46 W/m² | - |
| 1777898745 | 12.22° C | 56% | 1012.7 hPa | 0 mm | - | 37 W/m² | - |
| 1777896331 | 10.56° C | 59% | 1012.7 hPa | 0 mm | - | 33 W/m² | - |
| 1777895435 | 10° C | 59% | 1012.8 hPa | 0 mm | - | 33 W/m² | - |
| 1777894531 | 9.44° C | 61% | 1012.7 hPa | 0 mm | - | 30 W/m² | - |
| 1777893343 | 8.89° C | 63% | 1012.7 hPa | 0 mm | - | 26 W/m² | - |
| 1777892131 | 8.33° C | 64% | 1012.6 hPa | 0 mm | - | 40 W/m² | - |
| 1777890931 | 7.78° C | 63% | 1012.5 hPa | 0 mm | - | 21 W/m² | - |
| 1777888235 | 7.78° C | 62% | 1012 hPa | 0 mm | - | 0 W/m² | - |
| 1777886732 | 7.78° C | 61% | 1011.8 hPa | 0 mm | - | 0 W/m² | - |
| 1777886139 | 7.78° C | 62% | 1011.8 hPa | 0 mm | - | 0 W/m² | - |
| 1777884630 | 7.78° C | 62% | 1011.8 hPa | 0 mm | - | 0 W/m² | - |
| 1777884345 | 7.78° C | 61% | 1011.7 hPa | 0 mm | - | 0 W/m² | - |
| 1777884030 | 7.78° C | 61% | 1011.7 hPa | 0 mm | - | 0 W/m² | - |
| 1777883732 | 7.78° C | 61% | 1011.7 hPa | 0 mm | - | 0 W/m² | - |
* Rain latest hour (hover to see other rain measurements)
** Current wind speed in m/s (hover to see current wind gust speed)